Regional Weather Roundup
Issued by NWS

Home | Current Version | Previous Version | Text Only | Print | Product List | Glossary Off
Versions: 1 2 3 4 5 6 7 8 9 10 11 12 13 14 15 16 17 18 19 20 21 22 23 24 25 26 27 28 29 30 31 32 33 34 35 36 37 38 39 40 41 42 43 44 45 46 47 48 49 50

000
ASUS43 KDMX 241801
RWRIA

WEATHER ROUNDUP FOR IOWA
NATIONAL WEATHER SERVICE DES MOINES IA
100 PM CDT FRI MAR 24 2017

NOTE: "FAIR" INDICATES FEW OR NO CLOUDS BELOW 12,000 FEET WITH NO
SIGNIFICANT WEATHER AND/OR OBSTRUCTIONS TO VISIBILITY.

* - THESE STATIONS ARE NOT NWS STATIONS...THUS NOT UNDER NWS
QUALITY CONTROL.  THEY ALSO DO NOT REPORT WEATHER SUCH
AS PRECIPITATION OR FOG.

IAZ001>003-012>014-020>022-031>034-043>046-241900-
   NORTHWEST IOWA

CITY           SKY/WX    TMP DP  RH WIND       PRES   REMARKS
CARROLL *      CLOUDY    43  43 100 N10G17    29.95R FOG
CHEROKEE *     CLOUDY    40  39  97 N13       30.00R FOG     WCI  32
LE MARS *      CLOUDY    39  37  93 N15       30.03R WCI  31
ORANGE CITY *  CLOUDY    37  37 100 N10G22    30.02R FOG     WCI  30
SHELDON *      CLOUDY    37  37 100 N17G23    30.01R FOG     WCI  28
SIOUX CITY     LGT RAIN  41  39  93 N17       30.01R
6HR MIN TEMP:  41; 6HR MAX TEMP:  46; 6HR PCP:  0.01;

SPENCER        CLOUDY    40  38  93 N16       30.01R WCI  31
6HR MIN TEMP:  39; 6HR MAX TEMP:  40; 6HR PCP: TRACE;

STORM LAKE *   CLOUDY    41  39  93 NE18G25   29.97R FOG
$$

IAZ055>058-069>071-079>083-090>094-241900-
   SOUTHWEST IOWA

CITY           SKY/WX    TMP DP  RH WIND       PRES   REMARKS
ATLANTIC *     CLOUDY    48  46  93 NE16      29.91S
AUDUBON *      PTSUNNY   45  41  87 NE10      29.94R FOG
CLARINDA *     CLOUDY    59  57  94 S9        29.90S
COUNCIL BLFS * CLOUDY    48  48 100 N16       29.91F
CRESTON *      LGT RAIN  57  57 100 MISG      29.91S
HARLAN  *      CLOUDY    46  46 100 N16       29.96S
LAMONI         LGT RAIN  56  53  90 S5        29.90F
6HR MIN TEMP:  56; 6HR MAX TEMP:  67; 6HR PCP:  0.08;

RED OAK *      CLOUDY    52  50  93 N14       29.89S FOG
SHENANDOAH *   CLOUDY    55  52  88 N15       29.90R
$$

IAZ047>049-059>061-072>074-084-241900-
   CENTRAL IOWA

CITY           SKY/WX    TMP DP  RH WIND       PRES   REMARKS
AMES           CLOUDY    48  46  93 N9        29.93R FOG
6HR MIN TEMP:  43; 6HR MAX TEMP:  56; 6HR PCP:  0.02;

ANKENY *       LGT RAIN  48  45  87 NW8       29.96R
BOONE *        CLOUDY    46  46 100 N9G16     29.93R
CHARITON *     LGT RAIN  59  54  82 W12       29.92R
DES MOINES     LGT RAIN  49  46  90 N9        29.95R FOG
6HR MIN TEMP:  49; 6HR MAX TEMP:  65; 6HR PCP:  0.19;

GRINNELL*      DRIZZLE   62  49  61 NW16      29.91R
MARSHALLTOWN   LGT RAIN  47  45  93 N10       29.93R
6HR MIN TEMP:  44; 6HR MAX TEMP:  56; 6HR PCP: TRACE;

NEWTON *       CLOUDY    52  50  93 NW12      29.91R FOG
PELLA *          N/A     64  50  60 W13       29.92R
PERRY *        LGT RAIN  47  44  90 N8        29.94R
$$

IAZ004>006-015-016-023>025-035-036-241900-
   NORTH CENTRAL IOWA

CITY           SKY/WX    TMP DP  RH WIND       PRES   REMARKS
ALGONA *       CLOUDY    41  41 100 N13G18    29.99R FOG
CLARION *      CLOUDY    43  43 100 N17       29.94F FOG
ESTHERVILLE    CLOUDY    38  38 100 N17       30.01R FOG     WCI  28
6HR MIN TEMP:  37; 6HR MAX TEMP:  38; 6HR PCP:  0.04;

FORT DODGE *   CLOUDY    41  37  87 N12G20    29.96S
MASON CITY     CLOUDY    42  39  89 N13       29.97R
6HR MIN TEMP:  39; 6HR MAX TEMP:  43; 6HR PCP:  0.02;

FOREST CITY *  CLOUDY    41  41 100 N12       29.98R
WEBSTER CITY * CLOUDY    45  43  93 N14G21    29.92R
IOWA FALLS *   CLOUDY    46  42  88 N12       29.94R
$$

IAZ007>011-017>019-026>030-037>042-050>054-066-241900-
   NORTHEAST IOWA

CITY           SKY/WX    TMP DP  RH WIND       PRES   REMARKS
CEDAR RAPIDS   CLOUDY    70  48  45 SW17G24   29.86R
6HR MIN TEMP:  53; 6HR MAX TEMP:  73;

CHARLES CITY * CLOUDY    45  45 100 N13       29.94F FOG
CLINTON *      MOSUNNY   78  47  33 SW24      29.87R
DECORAH *      CLOUDY    43  41  93 N5        29.94R FOG
DUBUQUE        CLOUDY    71  50  47 SW20      29.86R
6HR MIN TEMP:  48; 6HR MAX TEMP:  72;

MONTICELLO *   PTSUNNY   73  48  40 SW18      29.86R
OELWEIN *      LGT RAIN  48  48 100 NE12      29.90F
WATERLOO       CLOUDY    50  44  80 N10       29.90S
6HR MIN TEMP:  40; 6HR MAX TEMP:  56; 6HR PCP: TRACE;

$$

IAZ064-065-067-068-078-241900-
   EAST CENTRAL IOWA

CITY           SKY/WX    TMP DP  RH WIND       PRES   REMARKS
DAVENPORT      CLOUDY    76  42  29 SW21G31   29.88R
6HR MIN TEMP:  53; 6HR MAX TEMP:  78;

IOWA CITY      CLOUDY    74  45  35 SW17G26   29.89R
6HR MIN TEMP:  45; 6HR MAX TEMP:  75;

MUSCATINE *    CLOUDY    75  41  29 MISG      29.89R
QUAD CITIES    SUNNY     78  43  28 SW17G30   29.87S
6HR MIN TEMP:  54; 6HR MAX TEMP:  81;

$$

IAZ062-063-075>077-085>089-095>099-241900-
   SOUTHEAST IOWA

CITY           SKY/WX    TMP DP  RH WIND       PRES   REMARKS
BURLINGTON     CLOUDY    75  45  34 SW21G29   29.90R
6HR MIN TEMP:  54; 6HR MAX TEMP:  76;

FAIRFIELD *    CLOUDY    72  41  33 SW17G24   29.89S
FORT MADISON * CLOUDY    75  46  35 SW20G29   29.92R
KEOKUK *       CLOUDY    75  46  35 SW20G26   29.90S
OSKALOOSA *    CLOUDY    69  46  43 SW17      29.90R
OTTUMWA        PTSUNNY   71  44  37 SW22G29   29.89R
6HR MIN TEMP:  57; 6HR MAX TEMP:  74;

WASHINGTON *   CLOUDY    72  43  35 SW24G31   29.91R
$$

ABBREVIATIONS USED IN REMARKS
   TC - TEMPERATURES IN CELSIUS
  WCI - WIND CHILL INDEX
   HX - HEAT INDEX
  VSB - VISIBILITY
$$




USA.gov is the U.S. government's official web portal to all federal, state and local government web resources and services.